User: anonymous   Login
Location: Bushey
(51.6333°N, 0.3667°W)
Time: 04:33:13
(UTC+00:00)
Language:

Lacrosse 4 Rocket - Orbit

View from above orbital plane
View from above orbital plane
View from above satellite
View from above satellite

Ground track
Ground track

The orbit data is extracted from the following two-line orbital elements,

1 26474U 00047B   21128.10974786  .00000117  00000-0  21000-4 0  9996
2 26474  67.9935 261.9369 0058053 205.0615 154.7708 14.96139196127887
Epoch (UTC): 08 May 2021 02:38:02
Eccentricity: 0.0058053
inclination: 67.9935°
perigee height: 538 km
apogee height: 619 km
right ascension of ascending node: 261.9369°
argument of perigee: 205.0615°
revolutions per day: 14.96139196
mean anomaly at epoch: 154.7708°
orbit number at epoch: 12788

The dashed part of the orbit path shows where the satellite is in the earth's shadow,  

DLR